Time,TemperatureF,DewpointF,PressureIn,WindDirection,WindDirectionDegrees,WindSpeedMPH,WindSpeedGustMPH,Humidity,HourlyPrecipIn,Conditions,Clouds,dailyrainin,SoftwareType,DateUTC
2013-05-13 00:00:00,47.5,47.2,29.71,North,6,0.0,14.0,99,0.04,,---,0.00,VWS V14.01,2013-05-13 04:00:00,
2013-05-13 00:01:00,47.5,47.2,29.71,NNW,328,2.0,14.0,99,0.04,,---,0.46,VWS V14.01,2013-05-13 04:01:00,
2013-05-13 00:06:00,47.3,47.0,29.71,NNW,345,3.0,12.0,99,0.05,,---,0.01,VWS V14.01,2013-05-13 04:06:00,
2013-05-13 00:11:00,47.0,46.7,29.71,NNW,333,4.0,12.0,99,0.06,,---,0.02,VWS V14.01,2013-05-13 04:11:00,
2013-05-13 00:16:00,46.7,46.4,29.72,NW,325,3.0,12.0,99,0.06,,---,0.02,VWS V14.01,2013-05-13 04:16:00,
2013-05-13 00:21:00,46.5,46.0,29.72,NW,321,2.0,12.0,98,0.06,,---,0.02,VWS V14.01,2013-05-13 04:21:00,
2013-05-13 00:26:00,46.5,46.0,29.73,NW,319,2.0,12.0,98,0.06,,---,0.02,VWS V14.01,2013-05-13 04:26:00,
2013-05-13 00:30:00,46.5,46.0,29.72,NW,324,2.0,12.0,98,0.06,,---,0.02,VWS V14.01,2013-05-13 04:30:00,
2013-05-13 00:31:00,46.5,46.0,29.72,North,11,2.0,12.0,98,0.06,,---,0.02,VWS V14.01,2013-05-13 04:31:00,
2013-05-13 00:36:00,46.5,46.0,29.72,NNE,29,0.0,6.0,98,0.05,,---,0.02,VWS V14.01,2013-05-13 04:36:00,
2013-05-13 00:41:00,46.5,46.0,29.73,North,353,4.0,7.0,98,0.05,,---,0.02,VWS V14.01,2013-05-13 04:41:00,
2013-05-13 00:46:00,46.5,46.0,29.72,NW,311,2.0,7.0,98,0.05,,---,0.02,VWS V14.01,2013-05-13 04:46:00,
2013-05-13 00:51:00,46.5,46.0,29.72,North,3,5.0,7.0,98,0.05,,---,0.02,VWS V14.01,2013-05-13 04:51:00,
2013-05-13 00:56:00,46.4,45.9,29.72,NNW,327,4.0,7.0,98,0.05,,---,0.02,VWS V14.01,2013-05-13 04:56:00,
2013-05-13 01:00:00,46.4,45.9,29.72,NNW,341,6.0,7.0,98,0.05,,---,0.02,VWS V14.01,2013-05-13 05:00:00,
2013-05-13 01:01:00,46.4,45.9,29.72,NE,37,0.0,7.0,98,0.05,,---,0.02,VWS V14.01,2013-05-13 05:01:00,
2013-05-13 01:06:00,46.2,45.4,29.73,WNW,292,2.0,5.0,97,0.02,,---,0.02,VWS V14.01,2013-05-13 05:06:00,
2013-05-13 01:11:00,46.1,45.3,29.73,NNW,335,2.0,5.0,97,0.02,,---,0.02,VWS V14.01,2013-05-13 05:11:00,
2013-05-13 01:16:00,45.9,44.8,29.73,NNW,328,1.0,9.0,96,0.02,,---,0.02,VWS V14.01,2013-05-13 05:16:00,
2013-05-13 01:21:00,45.6,44.5,29.72,NW,326,0.0,9.0,96,0.02,,---,0.02,VWS V14.01,2013-05-13 05:21:00,
2013-05-13 01:26:00,45.5,44.4,29.73,North,356,0.0,9.0,96,0.02,,---,0.02,VWS V14.01,2013-05-13 05:26:00,
2013-05-13 01:30:00,45.3,44.5,29.73,WNW,292,1.0,9.0,97,0.02,,---,0.02,VWS V14.01,2013-05-13 05:30:00,
2013-05-13 01:31:00,45.3,44.5,29.73,NNW,335,0.0,9.0,97,0.02,,---,0.02,VWS V14.01,2013-05-13 05:31:00,
2013-05-13 01:36:00,45.2,44.4,29.73,West,273,0.0,2.0,97,0.00,,---,0.02,VWS V14.01,2013-05-13 05:36:00,
2013-05-13 01:41:00,45.1,44.3,29.74,WNW,288,0.0,2.0,97,0.00,,---,0.02,VWS V14.01,2013-05-13 05:41:00,
2013-05-13 01:46:00,44.9,44.1,29.74,NW,310,0.0,2.0,97,0.00,,---,0.02,VWS V14.01,2013-05-13 05:46:00,
2013-05-13 01:51:00,44.7,44.2,29.74,WNW,290,0.0,2.0,98,0.00,,---,0.02,VWS V14.01,2013-05-13 05:51:00,
2013-05-13 01:56:00,44.3,43.8,29.74,WNW,289,0.0,2.0,98,0.00,,---,0.02,VWS V14.01,2013-05-13 05:56:00,
2013-05-13 02:00:00,44.0,43.5,29.74,WNW,284,0.0,2.0,98,0.00,,---,0.02,VWS V14.01,2013-05-13 06:00:00,
2013-05-13 02:01:00,44.1,43.6,29.74,WNW,284,0.0,2.0,98,0.00,,---,0.02,VWS V14.01,2013-05-13 06:01:00,
2013-05-13 02:06:00,43.8,43.3,29.74,WNW,284,0.0,0.0,98,0.00,,---,0.02,VWS V14.01,2013-05-13 06:06:00,
2013-05-13 02:11:00,43.6,43.1,29.74,WNW,283,0.0,0.0,98,0.00,,---,0.02,VWS V14.01,2013-05-13 06:11:00,
2013-05-13 02:16:00,43.5,43.0,29.74,WSW,257,0.0,0.0,98,0.00,,---,0.02,VWS V14.01,2013-05-13 06:16:00,
2013-05-13 02:21:00,43.4,42.9,29.74,WSW,257,0.0,0.0,98,0.00,,---,0.02,VWS V14.01,2013-05-13 06:21:00,
2013-05-13 02:26:00,43.3,42.8,29.75,WSW,257,0.0,0.0,98,0.00,,---,0.02,VWS V14.01,2013-05-13 06:26:00,
2013-05-13 02:30:00,42.9,42.4,29.75,WSW,257,0.0,0.0,98,0.00,,---,0.02,VWS V14.01,2013-05-13 06:30:00,
2013-05-13 02:31:00,43.0,42.5,29.75,WSW,257,0.0,0.0,98,0.00,,---,0.02,VWS V14.01,2013-05-13 06:31:00,
2013-05-13 02:36:00,42.7,42.2,29.75,WSW,257,0.0,0.0,98,0.00,,---,0.02,VWS V14.01,2013-05-13 06:36:00,
2013-05-13 02:41:00,42.3,41.8,29.75,West,259,0.0,0.0,98,0.00,,---,0.02,VWS V14.01,2013-05-13 06:41:00,
2013-05-13 02:46:00,41.9,41.4,29.75,West,260,0.0,0.0,98,0.00,,---,0.02,VWS V14.01,2013-05-13 06:46:00,
2013-05-13 02:51:00,41.8,41.3,29.75,West,260,0.0,0.0,98,0.00,,---,0.02,VWS V14.01,2013-05-13 06:51:00,
2013-05-13 02:55:00,41.7,41.2,29.75,West,260,0.0,0.0,98,0.00,,---,0.02,VWS V14.01,2013-05-13 06:55:00,
2013-05-13 03:00:00,41.6,41.3,29.76,West,263,0.0,1.0,99,0.00,,---,0.02,VWS V14.01,2013-05-13 07:00:00,
2013-05-13 03:05:00,41.5,41.2,29.76,West,263,0.0,0.0,99,0.00,,---,0.02,VWS V14.01,2013-05-13 07:05:00,
2013-05-13 03:10:00,41.9,41.6,29.76,West,263,0.0,0.0,99,0.00,,---,0.02,VWS V14.01,2013-05-13 07:10:00,
2013-05-13 03:15:00,41.9,41.6,29.76,West,263,0.0,0.0,99,0.00,,---,0.02,VWS V14.01,2013-05-13 07:15:00,
2013-05-13 03:20:00,41.7,41.4,29.76,WNW,291,0.0,1.0,99,0.00,,---,0.02,VWS V14.01,2013-05-13 07:20:00,
2013-05-13 03:25:00,41.8,41.5,29.77,West,278,0.0,2.0,99,0.00,,---,0.02,VWS V14.01,2013-05-13 07:25:00,
2013-05-13 03:30:00,41.9,41.9,29.77,West,262,0.0,2.0,100,0.00,,---,0.02,VWS V14.01,2013-05-13 07:30:00,
2013-05-13 03:35:00,42.1,42.1,29.77,WSW,246,0.0,1.0,100,0.00,,---,0.02,VWS V14.01,2013-05-13 07:35:00,
2013-05-13 03:40:00,42.4,42.4,29.77,WSW,245,0.0,1.0,100,0.00,,---,0.02,VWS V14.01,2013-05-13 07:40:00,
2013-05-13 03:45:00,42.5,42.5,29.77,West,266,0.0,1.0,100,0.00,,---,0.02,VWS V14.01,2013-05-13 07:45:00,
2013-05-13 03:50:00,42.5,42.5,29.77,WSW,248,0.0,1.0,100,0.00,,---,0.02,VWS V14.01,2013-05-13 07:50:00,
2013-05-13 03:55:00,42.5,42.5,29.77,West,259,0.0,2.0,100,0.00,,---,0.02,VWS V14.01,2013-05-13 07:55:00,
2013-05-13 04:00:00,42.5,42.5,29.78,SW,233,0.0,2.0,100,0.00,,---,0.02,VWS V14.01,2013-05-13 08:00:00,
2013-05-13 04:05:00,42.5,42.5,29.78,SW,233,0.0,0.0,100,0.00,,---,0.02,VWS V14.01,2013-05-13 08:05:00,
2013-05-13 04:10:00,42.4,42.4,29.78,SW,233,0.0,0.0,100,0.00,,---,0.02,VWS V14.01,2013-05-13 08:10:00,
2013-05-13 04:15:00,42.4,42.4,29.78,SW,233,0.0,0.0,100,0.00,,---,0.02,VWS V14.01,2013-05-13 08:15:00,
2013-05-13 04:20:00,42.4,42.4,29.78,SW,233,0.0,0.0,100,0.00,,---,0.02,VWS V14.01,2013-05-13 08:20:00,
2013-05-13 04:25:00,42.2,42.2,29.79,SW,233,0.0,0.0,100,0.00,,---,0.02,VWS V14.01,2013-05-13 08:25:00,
2013-05-13 04:30:00,42.2,42.2,29.79,SW,233,0.0,0.0,100,0.00,,---,0.02,VWS V14.01,2013-05-13 08:30:00,
2013-05-13 04:35:00,42.1,42.1,29.79,SW,233,0.0,0.0,100,0.00,,---,0.02,VWS V14.01,2013-05-13 08:35:00,
2013-05-13 04:40:00,41.9,41.9,29.79,SW,233,0.0,0.0,100,0.00,,---,0.02,VWS V14.01,2013-05-13 08:40:00,
2013-05-13 04:45:00,41.7,41.7,29.80,SW,233,0.0,0.0,100,0.00,,---,0.02,VWS V14.01,2013-05-13 08:45:00,
2013-05-13 04:50:00,41.8,41.8,29.80,SW,233,0.0,0.0,100,0.00,,---,0.02,VWS V14.01,2013-05-13 08:50:00,
2013-05-13 04:55:00,41.5,41.5,29.80,SW,233,0.0,0.0,100,0.00,,---,0.02,VWS V14.01,2013-05-13 08:55:00,
2013-05-13 05:00:00,41.1,40.8,29.80,SW,233,0.0,0.0,99,0.00,,---,0.02,VWS V14.01,2013-05-13 09:00:00,
2013-05-13 05:05:00,40.9,40.6,29.80,SW,233,0.0,0.0,99,0.00,,---,0.02,VWS V14.01,2013-05-13 09:05:00,
2013-05-13 05:10:00,40.4,40.1,29.80,SW,233,0.0,0.0,99,0.00,,---,0.02,VWS V14.01,2013-05-13 09:10:00,
2013-05-13 05:15:00,40.4,40.4,29.81,SW,233,0.0,0.0,100,0.00,,---,0.02,VWS V14.01,2013-05-13 09:15:00,
2013-05-13 05:20:00,40.9,40.9,29.81,SW,233,0.0,0.0,100,0.00,,---,0.02,VWS V14.01,2013-05-13 09:20:00,
2013-05-13 05:25:00,40.6,40.6,29.81,SW,233,0.0,0.0,100,0.00,,---,0.02,VWS V14.01,2013-05-13 09:25:00,
2013-05-13 05:30:00,40.7,40.4,29.81,SW,233,0.0,0.0,99,0.00,,---,0.02,VWS V14.01,2013-05-13 09:30:00,
2013-05-13 05:35:00,41.0,40.7,29.81,SW,233,0.0,0.0,99,0.00,,---,0.02,VWS V14.01,2013-05-13 09:35:00,
2013-05-13 05:40:00,41.1,40.8,29.82,SW,233,0.0,0.0,99,0.00,,---,0.02,VWS V14.01,2013-05-13 09:40:00,
2013-05-13 05:45:00,41.5,41.2,29.82,WNW,287,0.0,1.0,99,0.00,,---,0.02,VWS V14.01,2013-05-13 09:45:00,
2013-05-13 05:50:00,41.8,41.3,29.82,SW,220,0.0,2.0,98,0.00,,---,0.02,VWS V14.01,2013-05-13 09:50:00,
2013-05-13 05:55:00,42.2,41.7,29.83,NW,315,2.0,2.0,98,0.00,,---,0.02,VWS V14.01,2013-05-13 09:55:00,
2013-05-13 06:00:00,42.3,41.8,29.83,WNW,290,1.0,3.0,98,0.00,,---,0.02,VWS V14.01,2013-05-13 10:00:00,
2013-05-13 06:05:00,42.4,41.9,29.83,WNW,292,1.0,3.0,98,0.00,,---,0.02,VWS V14.01,2013-05-13 10:05:00,
2013-05-13 06:10:00,42.5,41.7,29.83,NW,312,2.0,3.0,97,0.00,,---,0.02,VWS V14.01,2013-05-13 10:10:00,
2013-05-13 06:15:00,42.6,41.8,29.83,NW,311,1.0,3.0,97,0.00,,---,0.02,VWS V14.01,2013-05-13 10:15:00,
2013-05-13 06:20:00,42.9,42.1,29.83,WNW,299,5.0,5.0,97,0.00,,---,0.02,VWS V14.01,2013-05-13 10:20:00,
2013-05-13 06:25:00,43.1,42.3,29.83,West,271,0.0,5.0,97,0.00,,---,0.02,VWS V14.01,2013-05-13 10:25:00,
2013-05-13 06:30:00,44.0,43.5,29.83,SW,233,1.0,5.0,98,0.00,,---,0.02,VWS V14.01,2013-05-13 10:30:00,
2013-05-13 06:35:00,44.3,43.2,29.83,West,277,0.0,2.0,96,0.00,,---,0.02,VWS V14.01,2013-05-13 10:35:00,
2013-05-13 06:40:00,44.3,42.7,29.83,WSW,256,0.0,2.0,94,0.00,,---,0.02,VWS V14.01,2013-05-13 10:40:00,
2013-05-13 06:45:00,44.5,43.2,29.84,WSW,248,0.0,2.0,95,0.00,,---,0.02,VWS V14.01,2013-05-13 10:45:00,
2013-05-13 06:50:00,45.0,43.4,29.83,West,262,0.0,2.0,94,0.00,,---,0.02,VWS V14.01,2013-05-13 10:50:00,
2013-05-13 06:55:00,45.7,43.8,29.84,WSW,256,1.0,2.0,93,0.00,,---,0.02,VWS V14.01,2013-05-13 10:55:00,
2013-05-13 07:00:00,46.1,44.5,29.84,SW,228,0.0,2.0,94,0.00,,---,0.02,VWS V14.01,2013-05-13 11:00:00,
2013-05-13 07:05:00,46.5,44.6,29.84,West,266,1.0,3.0,93,0.00,,---,0.02,VWS V14.01,2013-05-13 11:05:00,
2013-05-13 07:10:00,46.6,43.8,29.84,WNW,290,0.0,5.0,90,0.00,,---,0.02,VWS V14.01,2013-05-13 11:10:00,
2013-05-13 07:15:00,46.7,43.9,29.84,West,269,0.0,5.0,90,0.00,,---,0.02,VWS V14.01,2013-05-13 11:15:00,
2013-05-13 07:20:00,46.7,43.3,29.84,WNW,297,0.0,7.0,88,0.00,,---,0.02,VWS V14.01,2013-05-13 11:20:00,
2013-05-13 07:25:00,47.1,44.0,29.85,NNW,330,0.0,7.0,89,0.00,,---,0.02,VWS V14.01,2013-05-13 11:25:00,
2013-05-13 07:30:00,47.2,42.9,29.85,WSW,244,0.0,8.0,85,0.00,,---,0.02,VWS V14.01,2013-05-13 11:30:00,
2013-05-13 07:35:00,47.4,43.7,29.85,West,280,1.0,4.0,87,0.00,,---,0.02,VWS V14.01,2013-05-13 11:35:00,
2013-05-13 07:40:00,47.6,43.6,29.85,WSW,248,2.0,11.0,86,0.00,,---,0.02,VWS V14.01,2013-05-13 11:40:00,
2013-05-13 07:45:00,47.7,43.1,29.86,WNW,300,4.0,11.0,84,0.00,,---,0.02,VWS V14.01,2013-05-13 11:45:00,
2013-05-13 07:50:00,47.6,43.0,29.86,WSW,255,2.0,11.0,84,0.00,,---,0.02,VWS V14.01,2013-05-13 11:50:00,
2013-05-13 07:55:00,47.9,43.6,29.86,WSW,257,4.0,11.0,85,0.00,,---,0.02,VWS V14.01,2013-05-13 11:55:00,
2013-05-13 08:00:00,48.1,44.1,29.86,SSE,152,1.0,11.0,86,0.00,,---,0.02,VWS V14.01,2013-05-13 12:00:00,
2013-05-13 08:05:00,48.2,43.3,29.86,SSE,153,1.0,9.0,83,0.00,,---,0.02,VWS V14.01,2013-05-13 12:05:00,
2013-05-13 08:10:00,48.3,42.1,29.87,NW,304,6.0,15.0,79,0.00,,---,0.02,VWS V14.01,2013-05-13 12:10:00,
2013-05-13 08:15:00,48.1,41.6,29.87,ESE,103,0.0,15.0,78,0.00,,---,0.02,VWS V14.01,2013-05-13 12:15:00,
2013-05-13 08:20:00,48.4,41.9,29.87,WNW,288,2.0,15.0,78,0.00,,---,0.02,VWS V14.01,2013-05-13 12:20:00,
2013-05-13 08:25:00,48.6,42.1,29.87,WNW,293,7.0,15.0,78,0.00,,---,0.02,VWS V14.01,2013-05-13 12:25:00,
2013-05-13 08:30:00,48.6,42.1,29.87,WNW,301,1.0,15.0,78,0.00,,---,0.02,VWS V14.01,2013-05-13 12:30:00,
2013-05-13 08:35:00,48.7,41.5,29.87,SW,232,5.0,10.0,76,0.00,,---,0.02,VWS V14.01,2013-05-13 12:35:00,
2013-05-13 08:40:00,48.8,41.6,29.88,West,263,3.0,17.0,76,0.00,,---,0.02,VWS V14.01,2013-05-13 12:40:00,
2013-05-13 08:45:00,48.6,41.7,29.88,West,264,2.0,17.0,77,0.00,,---,0.02,VWS V14.01,2013-05-13 12:45:00,
2013-05-13 08:50:00,48.5,41.0,29.88,West,280,2.0,18.0,75,0.00,,---,0.02,VWS V14.01,2013-05-13 12:50:00,
2013-05-13 08:55:00,48.9,41.0,29.88,West,273,1.0,18.0,74,0.00,,---,0.02,VWS V14.01,2013-05-13 12:55:00,
2013-05-13 09:00:00,49.2,40.2,29.88,SW,217,10.0,18.0,71,0.00,,---,0.02,VWS V14.01,2013-05-13 13:00:00,
2013-05-13 09:05:00,49.2,40.2,29.88,NW,308,1.0,13.0,71,0.00,,---,0.02,VWS V14.01,2013-05-13 13:05:00,
2013-05-13 09:10:00,49.6,41.3,29.88,SW,231,5.0,14.0,73,0.00,,---,0.02,VWS V14.01,2013-05-13 13:10:00,
2013-05-13 09:15:00,49.6,40.2,29.88,WNW,284,2.0,16.0,70,0.00,,---,0.02,VWS V14.01,2013-05-13 13:15:00,
2013-05-13 09:20:00,49.6,40.2,29.88,SW,228,8.0,16.0,70,0.00,,---,0.02,VWS V14.01,2013-05-13 13:20:00,
2013-05-13 09:25:00,49.2,39.1,29.88,WNW,300,9.0,16.0,68,0.00,,---,0.02,VWS V14.01,2013-05-13 13:25:00,
2013-05-13 09:30:00,49.3,39.6,29.88,SSW,194,4.0,16.0,69,0.00,,---,0.02,VWS V14.01,2013-05-13 13:30:00,
2013-05-13 09:35:00,49.6,39.5,29.88,NW,305,5.0,10.0,68,0.00,,---,0.02,VWS V14.01,2013-05-13 13:35:00,
2013-05-13 09:40:00,49.5,39.0,29.88,SW,215,1.0,16.0,67,0.00,,---,0.02,VWS V14.01,2013-05-13 13:40:00,
2013-05-13 09:44:00,50.0,41.0,29.88,SW,226,4.0,16.0,71,0.00,,---,0.02,VWS V14.01,2013-05-13 13:44:00,
2013-05-13 09:49:00,49.9,39.4,29.88,SSW,200,11.0,16.0,67,0.00,,---,0.02,VWS V14.01,2013-05-13 13:49:00,
2013-05-13 09:54:00,50.1,40.7,29.88,NW,304,2.0,16.0,70,0.00,,---,0.02,VWS V14.01,2013-05-13 13:54:00,
2013-05-13 09:59:00,50.8,41.0,29.88,West,270,1.0,16.0,69,0.00,,---,0.02,VWS V14.01,2013-05-13 13:59:00,
2013-05-13 10:00:00,51.0,40.4,29.88,SSE,155,7.0,16.0,67,0.00,,---,0.02,VWS V14.01,2013-05-13 14:00:00,
2013-05-13 10:04:00,51.1,40.9,29.88,WNW,302,4.0,12.0,68,0.00,,---,0.02,VWS V14.01,2013-05-13 14:04:00,
2013-05-13 10:09:00,51.2,41.4,29.88,SW,236,6.0,12.0,69,0.00,,---,0.02,VWS V14.01,2013-05-13 14:09:00,
2013-05-13 10:14:00,51.5,40.5,29.89,SW,217,11.0,14.0,66,0.00,,---,0.02,VWS V14.01,2013-05-13 14:14:00,
2013-05-13 10:19:00,51.1,39.0,29.89,WNW,283,6.0,16.0,63,0.00,,---,0.02,VWS V14.01,2013-05-13 14:19:00,
2013-05-13 10:24:00,50.7,39.4,29.89,WNW,299,4.0,16.0,65,0.00,,---,0.02,VWS V14.01,2013-05-13 14:24:00,
2013-05-13 10:29:00,50.8,39.5,29.89,NNW,331,4.0,16.0,65,0.00,,---,0.02,VWS V14.01,2013-05-13 14:29:00,
2013-05-13 10:30:00,50.8,39.5,29.89,SSW,195,3.0,16.0,65,0.00,,---,0.02,VWS V14.01,2013-05-13 14:30:00,
2013-05-13 10:34:00,50.8,38.3,29.89,WSW,245,9.0,18.0,62,0.00,,---,0.02,VWS V14.01,2013-05-13 14:34:00,
2013-05-13 10:39:00,50.6,38.9,29.90,WNW,285,6.0,18.0,64,0.00,,---,0.02,VWS V14.01,2013-05-13 14:39:00,
2013-05-13 10:44:00,50.6,38.5,29.90,SSW,200,4.0,18.0,63,0.00,,---,0.02,VWS V14.01,2013-05-13 14:44:00,
2013-05-13 10:49:00,50.8,38.3,29.90,WSW,239,8.0,18.0,62,0.00,,---,0.02,VWS V14.01,2013-05-13 14:49:00,
2013-05-13 10:54:00,50.6,38.5,29.90,WNW,293,5.0,18.0,63,0.00,,---,0.02,VWS V14.01,2013-05-13 14:54:00,
2013-05-13 10:59:00,50.7,37.8,29.90,West,266,11.0,18.0,61,0.00,,---,0.02,VWS V14.01,2013-05-13 14:59:00,
2013-05-13 11:00:00,50.6,38.9,29.90,WSW,249,10.0,18.0,64,0.00,,---,0.02,VWS V14.01,2013-05-13 15:00:00,
2013-05-13 11:04:00,50.9,38.4,29.90,SW,229,6.0,11.0,62,0.00,,---,0.02,VWS V14.01,2013-05-13 15:04:00,
2013-05-13 11:09:00,50.8,36.6,29.90,WSW,245,3.0,18.0,58,0.00,,---,0.02,VWS V14.01,2013-05-13 15:09:00,
2013-05-13 11:14:00,50.5,37.6,29.91,SW,222,6.0,18.0,61,0.00,,---,0.02,VWS V14.01,2013-05-13 15:14:00,
2013-05-13 11:19:00,50.7,37.3,29.91,West,266,4.0,19.0,60,0.00,,---,0.02,VWS V14.01,2013-05-13 15:19:00,
2013-05-13 11:24:00,51.0,38.5,29.91,SSW,204,9.0,19.0,62,0.00,,---,0.02,VWS V14.01,2013-05-13 15:24:00,
2013-05-13 11:29:00,51.0,37.6,29.91,West,281,7.0,19.0,60,0.00,,---,0.02,VWS V14.01,2013-05-13 15:29:00,
2013-05-13 11:30:00,50.9,37.1,29.91,West,262,6.0,19.0,59,0.00,,---,0.02,VWS V14.01,2013-05-13 15:30:00,
2013-05-13 11:34:00,50.6,37.2,29.91,WSW,257,11.0,21.0,60,0.00,,---,0.02,VWS V14.01,2013-05-13 15:34:00,
2013-05-13 11:39:00,50.8,37.8,29.91,SW,235,16.0,21.0,61,0.00,,---,0.02,VWS V14.01,2013-05-13 15:39:00,
2013-05-13 11:44:00,50.8,37.0,29.91,WNW,287,5.0,21.0,59,0.00,,---,0.02,VWS V14.01,2013-05-13 15:44:00,
2013-05-13 11:49:00,50.6,36.4,29.91,South,178,3.0,21.0,58,0.00,,---,0.02,VWS V14.01,2013-05-13 15:49:00,
2013-05-13 11:54:00,50.7,36.5,29.91,SW,215,7.0,21.0,58,0.00,,---,0.02,VWS V14.01,2013-05-13 15:54:00,
2013-05-13 11:59:00,51.2,37.8,29.92,West,259,5.0,21.0,60,0.00,,---,0.02,VWS V14.01,2013-05-13 15:59:00,
2013-05-13 12:00:00,51.4,37.6,29.92,SSW,197,3.0,21.0,59,0.00,,---,0.02,VWS V14.01,2013-05-13 16:00:00,
2013-05-13 12:04:00,51.5,36.3,29.92,NW,311,8.0,16.0,56,0.00,,---,0.02,VWS V14.01,2013-05-13 16:04:00,
2013-05-13 12:09:00,51.6,37.3,29.92,NW,319,2.0,16.0,58,0.00,,---,0.02,VWS V14.01,2013-05-13 16:09:00,
2013-05-13 12:14:00,51.5,37.2,29.92,SW,227,8.0,16.0,58,0.00,,---,0.02,VWS V14.01,2013-05-13 16:14:00,
2013-05-13 12:19:00,51.3,36.6,29.92,West,266,3.0,19.0,57,0.00,,---,0.02,VWS V14.01,2013-05-13 16:19:00,
2013-05-13 12:24:00,51.2,36.5,29.92,NW,316,2.0,19.0,57,0.00,,---,0.02,VWS V14.01,2013-05-13 16:24:00,
2013-05-13 12:29:00,51.4,37.1,29.92,SSW,209,11.0,19.0,58,0.00,,---,0.02,VWS V14.01,2013-05-13 16:29:00,
2013-05-13 12:30:00,51.3,36.6,29.92,SSW,201,2.0,19.0,57,0.00,,---,0.02,VWS V14.01,2013-05-13 16:30:00,
2013-05-13 12:34:00,51.5,37.7,29.92,West,271,3.0,16.0,59,0.00,,---,0.02,VWS V14.01,2013-05-13 16:34:00,
2013-05-13 12:39:00,51.6,37.8,29.92,WSW,255,5.0,19.0,59,0.00,,---,0.02,VWS V14.01,2013-05-13 16:39:00,
2013-05-13 12:44:00,52.0,38.1,29.92,SW,235,13.0,19.0,59,0.00,,---,0.02,VWS V14.01,2013-05-13 16:44:00,
2013-05-13 12:49:00,52.1,37.8,29.92,WSW,238,9.0,21.0,58,0.00,,---,0.02,VWS V14.01,2013-05-13 16:49:00,
2013-05-13 12:54:00,52.2,36.5,29.92,SW,225,10.0,21.0,55,0.00,,---,0.02,VWS V14.01,2013-05-13 16:54:00,
2013-05-13 12:59:00,52.3,37.5,29.92,NW,314,6.0,21.0,57,0.00,,---,0.02,VWS V14.01,2013-05-13 16:59:00,
2013-05-13 13:00:00,52.3,37.5,29.92,SW,224,7.0,21.0,57,0.00,,---,0.02,VWS V14.01,2013-05-13 17:00:00,
2013-05-13 13:04:00,52.5,37.3,29.92,WSW,256,7.0,13.0,56,0.00,,---,0.02,VWS V14.01,2013-05-13 17:04:00,
2013-05-13 13:09:00,52.2,37.0,29.92,WSW,243,10.0,19.0,56,0.00,,---,0.02,VWS V14.01,2013-05-13 17:09:00,
2013-05-13 13:14:00,52.2,36.5,29.92,SW,235,4.0,19.0,55,0.00,,---,0.02,VWS V14.01,2013-05-13 17:14:00,
2013-05-13 13:19:00,52.0,36.8,29.92,WNW,294,8.0,20.0,56,0.00,,---,0.02,VWS V14.01,2013-05-13 17:19:00,
2013-05-13 13:24:00,52.1,37.8,29.92,WSW,245,8.0,20.0,58,0.00,,---,0.02,VWS V14.01,2013-05-13 17:24:00,
2013-05-13 13:29:00,52.0,36.8,29.93,West,266,11.0,23.0,56,0.00,,---,0.02,VWS V14.01,2013-05-13 17:29:00,
2013-05-13 13:30:00,52.2,36.5,29.93,West,266,4.0,23.0,55,0.00,,---,0.02,VWS V14.01,2013-05-13 17:30:00,
2013-05-13 13:34:00,52.3,36.6,29.93,WSW,249,7.0,18.0,55,0.00,,---,0.02,VWS V14.01,2013-05-13 17:34:00,
2013-05-13 13:39:00,52.4,36.7,29.93,SE,146,2.0,19.0,55,0.00,,---,0.02,VWS V14.01,2013-05-13 17:39:00,
2013-05-13 13:44:00,52.5,36.3,29.93,WNW,293,10.0,19.0,54,0.00,,---,0.02,VWS V14.01,2013-05-13 17:44:00,
2013-05-13 13:49:00,52.7,36.1,29.93,SSW,205,2.0,19.0,53,0.00,,---,0.02,VWS V14.01,2013-05-13 17:49:00,
2013-05-13 13:54:00,53.0,37.7,29.93,WNW,285,7.0,19.0,56,0.00,,---,0.02,VWS V14.01,2013-05-13 17:54:00,
2013-05-13 13:59:00,53.1,37.8,29.94,West,259,7.0,19.0,56,0.00,,---,0.02,VWS V14.01,2013-05-13 17:59:00,
2013-05-13 14:00:00,53.0,37.3,29.94,WSW,244,3.0,19.0,55,0.00,,---,0.02,VWS V14.01,2013-05-13 18:00:00,
2013-05-13 14:04:00,53.1,36.4,29.93,SW,225,12.0,14.0,53,0.00,,---,0.02,VWS V14.01,2013-05-13 18:04:00,
2013-05-13 14:09:00,53.3,37.6,29.94,NW,319,4.0,15.0,55,0.00,,---,0.02,VWS V14.01,2013-05-13 18:09:00,
2013-05-13 14:14:00,53.9,37.7,29.93,WNW,283,2.0,15.0,54,0.00,,---,0.02,VWS V14.01,2013-05-13 18:14:00,
2013-05-13 14:19:00,53.9,37.2,29.93,NW,326,6.0,15.0,53,0.00,,---,0.02,VWS V14.01,2013-05-13 18:19:00,
2013-05-13 14:24:00,53.8,37.6,29.93,SW,214,5.0,15.0,54,0.00,,---,0.02,VWS V14.01,2013-05-13 18:24:00,
2013-05-13 14:29:00,53.4,37.2,29.93,WSW,246,6.0,16.0,54,0.00,,---,0.02,VWS V14.01,2013-05-13 18:29:00,
2013-05-13 14:30:00,53.2,37.5,29.93,West,273,11.0,18.0,55,0.00,,---,0.02,VWS V14.01,2013-05-13 18:30:00,
2013-05-13 14:34:00,53.1,36.9,29.93,WSW,245,8.0,15.0,54,0.00,,---,0.02,VWS V14.01,2013-05-13 18:34:00,
2013-05-13 14:39:00,53.2,37.5,29.93,West,259,3.0,15.0,55,0.00,,---,0.02,VWS V14.01,2013-05-13 18:39:00,
2013-05-13 14:44:00,53.0,36.8,29.93,East,101,10.0,16.0,54,0.00,,---,0.02,VWS V14.01,2013-05-13 18:44:00,
2013-05-13 14:49:00,52.9,37.2,29.93,WSW,246,4.0,21.0,55,0.00,,---,0.02,VWS V14.01,2013-05-13 18:49:00,
2013-05-13 14:54:00,53.0,36.3,29.93,NNW,328,5.0,21.0,53,0.00,,---,0.02,VWS V14.01,2013-05-13 18:54:00,
2013-05-13 14:59:00,53.0,37.3,29.93,SW,233,7.0,21.0,55,0.00,,---,0.02,VWS V14.01,2013-05-13 18:59:00,
2013-05-13 15:00:00,53.2,36.5,29.93,West,262,11.0,21.0,53,0.00,,---,0.02,VWS V14.01,2013-05-13 19:00:00,
2013-05-13 15:04:00,53.2,37.0,29.93,WNW,288,4.0,14.0,54,0.00,,---,0.02,VWS V14.01,2013-05-13 19:04:00,
2013-05-13 15:09:00,53.3,36.1,29.93,WNW,290,4.0,17.0,52,0.00,,---,0.02,VWS V14.01,2013-05-13 19:09:00,
2013-05-13 15:14:00,53.6,36.4,29.93,NNW,343,4.0,17.0,52,0.00,,---,0.02,VWS V14.01,2013-05-13 19:14:00,
2013-05-13 15:19:00,53.6,36.4,29.93,WSW,240,6.0,17.0,52,0.00,,---,0.02,VWS V14.01,2013-05-13 19:19:00,
2013-05-13 15:24:00,53.7,36.5,29.93,WSW,246,5.0,17.0,52,0.00,,---,0.02,VWS V14.01,2013-05-13 19:24:00,
2013-05-13 15:29:00,53.4,37.2,29.93,WNW,284,10.0,18.0,54,0.00,,---,0.02,VWS V14.01,2013-05-13 19:29:00,
2013-05-13 15:30:00,53.5,35.8,29.92,WNW,291,2.0,18.0,51,0.00,,---,0.02,VWS V14.01,2013-05-13 19:30:00,
2013-05-13 15:34:00,53.6,35.9,29.92,WNW,285,2.0,12.0,51,0.00,,---,0.02,VWS V14.01,2013-05-13 19:34:00,
2013-05-13 15:39:00,53.4,35.7,29.92,WSW,254,4.0,18.0,51,0.00,,---,0.02,VWS V14.01,2013-05-13 19:39:00,
2013-05-13 15:44:00,53.6,35.9,29.92,SW,224,11.0,20.0,51,0.00,,---,0.02,VWS V14.01,2013-05-13 19:44:00,
2013-05-13 15:48:00,53.7,36.0,29.93,SW,236,9.0,20.0,51,0.00,,---,0.02,VWS V14.01,2013-05-13 19:48:00,
2013-05-13 15:53:00,53.4,35.7,29.93,ESE,117,5.0,20.0,51,0.00,,---,0.02,VWS V14.01,2013-05-13 19:53:00,
2013-05-13 15:58:00,53.3,35.2,29.93,West,280,3.0,20.0,50,0.00,,---,0.02,VWS V14.01,2013-05-13 19:58:00,
2013-05-13 16:00:00,53.3,36.6,29.93,WSW,253,7.0,20.0,53,0.00,,---,0.02,VWS V14.01,2013-05-13 20:00:00,
2013-05-13 16:03:00,53.2,36.5,29.93,SSW,211,3.0,13.0,53,0.00,,---,0.02,VWS V14.01,2013-05-13 20:03:00,
2013-05-13 16:08:00,53.5,38.2,29.93,SW,219,3.0,13.0,56,0.00,,---,0.02,VWS V14.01,2013-05-13 20:08:00,
2013-05-13 16:13:00,53.5,38.7,29.93,East,84,0.0,18.0,57,0.00,,---,0.02,VWS V14.01,2013-05-13 20:13:00,
2013-05-13 16:18:00,53.9,38.6,29.93,SSW,204,4.0,18.0,56,0.00,,---,0.02,VWS V14.01,2013-05-13 20:18:00,
2013-05-13 16:23:00,53.4,39.0,29.93,SW,224,0.0,18.0,58,0.00,,---,0.02,VWS V14.01,2013-05-13 20:23:00,
2013-05-13 16:28:00,53.2,38.4,29.93,WSW,248,3.0,18.0,57,0.00,,---,0.02,VWS V14.01,2013-05-13 20:28:00,
2013-05-13 16:30:00,53.2,38.8,29.93,SSW,212,4.0,18.0,58,0.00,,---,0.02,VWS V14.01,2013-05-13 20:30:00,
2013-05-13 16:33:00,53.2,38.8,29.93,WSW,247,3.0,13.0,58,0.00,,---,0.02,VWS V14.01,2013-05-13 20:33:00,
2013-05-13 16:38:00,53.0,38.6,29.93,SSE,163,6.0,13.0,58,0.00,,---,0.02,VWS V14.01,2013-05-13 20:38:00,
2013-05-13 16:43:00,53.0,38.2,29.93,WSW,239,10.0,17.0,57,0.00,,---,0.02,VWS V14.01,2013-05-13 20:43:00,
2013-05-13 16:48:00,52.7,38.8,29.93,West,263,3.0,17.0,59,0.00,,---,0.02,VWS V14.01,2013-05-13 20:48:00,
2013-05-13 16:53:00,52.5,38.6,29.93,West,267,5.0,17.0,59,0.00,,---,0.02,VWS V14.01,2013-05-13 20:53:00,
2013-05-13 16:58:00,52.6,39.5,29.93,SW,214,5.0,17.0,61,0.00,,---,0.02,VWS V14.01,2013-05-13 20:58:00,
2013-05-13 17:00:00,52.4,38.5,29.94,West,279,3.0,17.0,59,0.00,,---,0.02,VWS V14.01,2013-05-13 21:00:00,
2013-05-13 17:03:00,52.4,38.5,29.93,SSW,193,5.0,10.0,59,0.00,,---,0.02,VWS V14.01,2013-05-13 21:03:00,
2013-05-13 17:08:00,52.2,38.3,29.93,West,281,6.0,13.0,59,0.00,,---,0.02,VWS V14.01,2013-05-13 21:08:00,
2013-05-13 17:13:00,51.9,38.0,29.94,SSW,205,5.0,13.0,59,0.00,,---,0.02,VWS V14.01,2013-05-13 21:13:00,
2013-05-13 17:18:00,51.8,38.4,29.94,WSW,248,2.0,16.0,60,0.00,,---,0.02,VWS V14.01,2013-05-13 21:18:00,
2013-05-13 17:23:00,52.0,39.0,29.94,SSW,207,0.0,16.0,61,0.00,,---,0.02,VWS V14.01,2013-05-13 21:23:00,
2013-05-13 17:28:00,51.8,37.9,29.94,SW,219,4.0,18.0,59,0.00,,---,0.02,VWS V14.01,2013-05-13 21:28:00,
2013-05-13 17:30:00,51.6,38.6,29.93,SSW,212,7.0,18.0,61,0.00,,---,0.02,VWS V14.01,2013-05-13 21:30:00,
2013-05-13 17:33:00,51.5,38.5,29.93,SW,227,1.0,15.0,61,0.00,,---,0.02,VWS V14.01,2013-05-13 21:33:00,
2013-05-13 17:38:00,51.4,38.8,29.93,SW,218,3.0,15.0,62,0.00,,---,0.02,VWS V14.01,2013-05-13 21:38:00,
2013-05-13 17:43:00,51.5,38.9,29.93,West,281,1.0,15.0,62,0.00,,---,0.02,VWS V14.01,2013-05-13 21:43:00,
2013-05-13 17:48:00,51.6,39.0,29.93,SSE,150,2.0,15.0,62,0.00,,---,0.02,VWS V14.01,2013-05-13 21:48:00,
2013-05-13 17:53:00,51.5,38.9,29.93,WSW,252,3.0,15.0,62,0.00,,---,0.02,VWS V14.01,2013-05-13 21:53:00,
2013-05-13 17:58:00,51.4,39.2,29.94,SW,233,6.0,15.0,63,0.00,,---,0.02,VWS V14.01,2013-05-13 21:58:00,
2013-05-13 18:00:00,51.2,39.0,29.94,NNW,338,2.0,15.0,63,0.00,,---,0.02,VWS V14.01,2013-05-13 22:00:00,
2013-05-13 18:03:00,51.1,39.0,29.94,WSW,242,7.0,12.0,63,0.00,,---,0.02,VWS V14.01,2013-05-13 22:03:00,
2013-05-13 18:08:00,50.9,39.2,29.94,SW,236,4.0,12.0,64,0.00,,---,0.02,VWS V14.01,2013-05-13 22:08:00,
2013-05-13 18:13:00,50.5,38.8,29.95,SW,221,6.0,13.0,64,0.00,,---,0.02,VWS V14.01,2013-05-13 22:13:00,
2013-05-13 18:18:00,50.1,38.4,29.95,WSW,250,3.0,13.0,64,0.00,,---,0.02,VWS V14.01,2013-05-13 22:18:00,
2013-05-13 18:23:00,49.8,38.5,29.95,NW,316,2.0,13.0,65,0.00,,---,0.02,VWS V14.01,2013-05-13 22:23:00,
2013-05-13 18:28:00,49.7,38.8,29.95,SSW,201,0.0,13.0,66,0.00,,---,0.02,VWS V14.01,2013-05-13 22:28:00,
2013-05-13 18:30:00,49.9,39.0,29.95,WSW,246,0.0,13.0,66,0.00,,---,0.02,VWS V14.01,2013-05-13 22:30:00,
2013-05-13 18:33:00,49.9,39.0,29.95,SW,228,3.0,3.0,66,0.00,,---,0.02,VWS V14.01,2013-05-13 22:33:00,
2013-05-13 18:38:00,49.8,38.9,29.95,SW,216,1.0,9.0,66,0.00,,---,0.02,VWS V14.01,2013-05-13 22:38:00,
2013-05-13 18:43:00,49.9,39.4,29.95,WNW,300,3.0,9.0,67,0.00,,---,0.02,VWS V14.01,2013-05-13 22:43:00,
2013-05-13 18:48:00,49.5,39.4,29.95,SW,228,2.0,9.0,68,0.00,,---,0.02,VWS V14.01,2013-05-13 22:48:00,
2013-05-13 18:53:00,49.0,39.3,29.95,SW,236,3.0,9.0,69,0.00,,---,0.02,VWS V14.01,2013-05-13 22:53:00,
2013-05-13 18:58:00,48.6,39.6,29.95,SSE,158,0.0,9.0,71,0.00,,---,0.02,VWS V14.01,2013-05-13 22:58:00,
2013-05-13 19:00:00,48.4,39.4,29.95,SW,225,3.0,9.0,71,0.00,,---,0.02,VWS V14.01,2013-05-13 23:00:00,
2013-05-13 19:03:00,48.3,39.3,29.96,SE,143,2.0,4.0,71,0.00,,---,0.02,VWS V14.01,2013-05-13 23:03:00,
2013-05-13 19:08:00,48.0,39.8,29.96,SSW,205,4.0,5.0,73,0.00,,---,0.02,VWS V14.01,2013-05-13 23:08:00,
2013-05-13 19:13:00,47.8,39.6,29.96,SW,215,3.0,5.0,73,0.00,,---,0.02,VWS V14.01,2013-05-13 23:13:00,
2013-05-13 19:18:00,47.5,39.3,29.97,SW,229,1.0,8.0,73,0.00,,---,0.02,VWS V14.01,2013-05-13 23:18:00,
2013-05-13 19:23:00,47.3,39.5,29.97,West,260,2.0,9.0,74,0.00,,---,0.02,VWS V14.01,2013-05-13 23:23:00,
2013-05-13 19:28:00,47.1,39.6,29.97,WSW,255,3.0,9.0,75,0.00,,---,0.02,VWS V14.01,2013-05-13 23:28:00,
2013-05-13 19:30:00,46.9,39.7,29.97,SW,233,1.0,9.0,76,0.00,,---,0.02,VWS V14.01,2013-05-13 23:30:00,
2013-05-13 19:33:00,46.9,39.7,29.96,WSW,240,3.0,3.0,76,0.00,,---,0.02,VWS V14.01,2013-05-13 23:33:00,
2013-05-13 19:38:00,46.7,39.9,29.97,West,269,0.0,4.0,77,0.00,,---,0.02,VWS V14.01,2013-05-13 23:38:00,
2013-05-13 19:43:00,46.5,39.7,29.96,West,273,1.0,5.0,77,0.00,,---,0.02,VWS V14.01,2013-05-13 23:43:00,
2013-05-13 19:48:00,46.3,39.5,29.96,SSW,212,0.0,5.0,77,0.00,,---,0.02,VWS V14.01,2013-05-13 23:48:00,
2013-05-13 19:53:00,46.0,39.2,29.97,WSW,245,1.0,5.0,77,0.00,,---,0.02,VWS V14.01,2013-05-13 23:53:00,
2013-05-13 19:58:00,45.9,39.1,29.97,West,259,0.0,6.0,77,0.00,,---,0.02,VWS V14.01,2013-05-13 23:58:00,
2013-05-13 20:00:00,45.7,39.2,29.97,SW,236,0.0,6.0,78,0.00,,---,0.02,VWS V14.01,2013-05-14 00:00:00,
2013-05-13 20:03:00,45.7,39.2,29.97,SW,236,0.0,1.0,78,0.00,,---,0.02,VWS V14.01,2013-05-14 00:03:00,
2013-05-13 20:08:00,45.4,39.0,29.97,West,278,2.0,4.0,78,0.00,,---,0.02,VWS V14.01,2013-05-14 00:08:00,
2013-05-13 20:13:00,45.5,38.7,29.98,WSW,245,0.0,4.0,77,0.00,,---,0.02,VWS V14.01,2013-05-14 00:13:00,
2013-05-13 20:18:00,45.3,38.2,29.98,WSW,245,0.0,4.0,76,0.00,,---,0.02,VWS V14.01,2013-05-14 00:18:00,
2013-05-13 20:23:00,45.3,38.2,29.98,West,269,0.0,5.0,76,0.00,,---,0.02,VWS V14.01,2013-05-14 00:23:00,
2013-05-13 20:28:00,45.1,38.0,29.98,SW,229,0.0,5.0,76,0.00,,---,0.02,VWS V14.01,2013-05-14 00:28:00,
2013-05-13 20:30:00,45.1,38.0,29.98,WSW,245,0.0,5.0,76,0.00,,---,0.02,VWS V14.01,2013-05-14 00:30:00,
2013-05-13 20:33:00,45.0,37.9,29.98,SW,219,0.0,1.0,76,0.00,,---,0.02,VWS V14.01,2013-05-14 00:33:00,
2013-05-13 20:38:00,44.8,38.0,29.99,West,259,0.0,1.0,77,0.00,,---,0.02,VWS V14.01,2013-05-14 00:38:00,
2013-05-13 20:43:00,44.6,37.8,29.99,West,260,0.0,1.0,77,0.00,,---,0.02,VWS V14.01,2013-05-14 00:43:00,
2013-05-13 20:48:00,44.4,38.0,29.99,West,260,0.0,1.0,78,0.00,,---,0.02,VWS V14.01,2013-05-14 00:48:00,
2013-05-13 20:53:00,44.1,38.0,29.99,West,260,0.0,1.0,79,0.00,,---,0.02,VWS V14.01,2013-05-14 00:53:00,
2013-05-13 20:58:00,43.7,38.0,29.99,West,260,0.0,1.0,80,0.00,,---,0.02,VWS V14.01,2013-05-14 00:58:00,
2013-05-13 21:00:00,43.6,38.2,29.99,West,260,0.0,1.0,81,0.00,,---,0.02,VWS V14.01,2013-05-14 01:00:00,
2013-05-13 21:03:00,43.6,38.2,29.99,West,270,0.0,1.0,81,0.00,,---,0.02,VWS V14.01,2013-05-14 01:03:00,
2013-05-13 21:08:00,43.6,38.5,29.99,West,269,0.0,1.0,82,0.00,,---,0.02,VWS V14.01,2013-05-14 01:08:00,
2013-05-13 21:13:00,43.5,38.4,29.99,West,271,0.0,1.0,82,0.00,,---,0.02,VWS V14.01,2013-05-14 01:13:00,
2013-05-13 21:18:00,43.4,38.6,30.00,West,270,0.0,1.0,83,0.00,,---,0.02,VWS V14.01,2013-05-14 01:18:00,
2013-05-13 21:23:00,43.5,39.0,30.01,WSW,239,0.0,3.0,84,0.00,,---,0.02,VWS V14.01,2013-05-14 01:23:00,
2013-05-13 21:28:00,43.8,39.3,30.01,WSW,246,0.0,3.0,84,0.00,,---,0.02,VWS V14.01,2013-05-14 01:28:00,
2013-05-13 21:30:00,44.0,39.5,30.01,WSW,246,0.0,3.0,84,0.00,,---,0.02,VWS V14.01,2013-05-14 01:30:00,
2013-05-13 21:33:00,44.0,39.5,30.01,WSW,246,0.0,0.0,84,0.00,,---,0.02,VWS V14.01,2013-05-14 01:33:00,
2013-05-13 21:38:00,44.0,39.5,30.01,SW,226,0.0,0.0,84,0.00,,---,0.02,VWS V14.01,2013-05-14 01:38:00,
2013-05-13 21:43:00,44.0,39.8,30.01,SW,226,0.0,0.0,85,0.00,,---,0.02,VWS V14.01,2013-05-14 01:43:00,
2013-05-13 21:48:00,44.0,39.8,30.01,SW,227,0.0,0.0,85,0.00,,---,0.02,VWS V14.01,2013-05-14 01:48:00,
2013-05-13 21:53:00,43.8,39.6,30.00,SW,226,0.0,0.0,85,0.00,,---,0.02,VWS V14.01,2013-05-14 01:53:00,
2013-05-13 21:58:00,43.8,39.9,30.01,SW,226,0.0,0.0,86,0.00,,---,0.02,VWS V14.01,2013-05-14 01:58:00,
2013-05-13 22:00:00,43.9,39.7,30.01,SW,226,0.0,0.0,85,0.00,,---,0.02,VWS V14.01,2013-05-14 02:00:00,
2013-05-13 22:03:00,43.9,39.7,30.00,SW,226,0.0,0.0,85,0.00,,---,0.02,VWS V14.01,2013-05-14 02:03:00,
2013-05-13 22:08:00,43.8,39.6,30.01,SW,226,0.0,0.0,85,0.00,,---,0.02,VWS V14.01,2013-05-14 02:08:00,
2013-05-13 22:13:00,43.9,39.7,30.01,SW,226,0.0,0.0,85,0.00,,---,0.02,VWS V14.01,2013-05-14 02:13:00,
2013-05-13 22:18:00,43.7,39.8,30.01,SW,226,0.0,0.0,86,0.00,,---,0.02,VWS V14.01,2013-05-14 02:18:00,
2013-05-13 22:23:00,43.8,39.9,30.02,SW,226,0.0,0.0,86,0.00,,---,0.02,VWS V14.01,2013-05-14 02:23:00,
2013-05-13 22:28:00,43.8,39.6,30.01,SW,226,0.0,0.0,85,0.00,,---,0.02,VWS V14.01,2013-05-14 02:28:00,
2013-05-13 22:30:00,43.7,39.5,30.02,SW,227,0.0,0.0,85,0.00,,---,0.02,VWS V14.01,2013-05-14 02:30:00,
2013-05-13 22:33:00,43.6,39.4,30.02,SW,226,0.0,0.0,85,0.00,,---,0.02,VWS V14.01,2013-05-14 02:33:00,
2013-05-13 22:38:00,43.0,39.4,30.01,SW,226,0.0,0.0,87,0.00,,---,0.02,VWS V14.01,2013-05-14 02:38:00,
2013-05-13 22:43:00,42.9,39.6,30.00,SW,226,0.0,0.0,88,0.00,,---,0.02,VWS V14.01,2013-05-14 02:43:00,
2013-05-13 22:48:00,42.8,39.5,30.00,SW,226,0.0,0.0,88,0.00,,---,0.02,VWS V14.01,2013-05-14 02:48:00,
2013-05-13 22:53:00,42.8,39.5,30.01,SW,236,0.0,0.0,88,0.00,,---,0.02,VWS V14.01,2013-05-14 02:53:00,
2013-05-13 22:58:00,42.8,39.8,30.01,SSE,166,0.0,0.0,89,0.00,,---,0.02,VWS V14.01,2013-05-14 02:58:00,
2013-05-13 23:00:00,42.8,40.1,30.00,ENE,74,1.0,1.0,90,0.00,,---,0.02,VWS V14.01,2013-05-14 03:00:00,
2013-05-13 23:03:00,42.8,40.1,30.00,ENE,73,0.0,1.0,90,0.00,,---,0.02,VWS V14.01,2013-05-14 03:03:00,
2013-05-13 23:08:00,42.9,40.2,30.01,SE,139,0.0,1.0,90,0.00,,---,0.02,VWS V14.01,2013-05-14 03:08:00,
2013-05-13 23:12:00,43.0,40.0,30.01,SE,126,0.0,1.0,89,0.00,,---,0.02,VWS V14.01,2013-05-14 03:12:00,
2013-05-13 23:17:00,43.1,40.1,30.01,SE,125,0.0,1.0,89,0.00,,---,0.02,VWS V14.01,2013-05-14 03:17:00,
2013-05-13 23:22:00,42.9,39.9,30.01,SE,125,0.0,1.0,89,0.00,,---,0.02,VWS V14.01,2013-05-14 03:22:00,
2013-05-13 23:27:00,42.9,39.9,30.01,SE,125,0.0,1.0,89,0.00,,---,0.02,VWS V14.01,2013-05-14 03:27:00,
2013-05-13 23:30:00,42.4,39.4,30.01,SE,125,0.0,1.0,89,0.00,,---,0.02,VWS V14.01,2013-05-14 03:30:00,
2013-05-13 23:32:00,42.2,39.2,30.01,SE,126,0.0,0.0,89,0.00,,---,0.02,VWS V14.01,2013-05-14 03:32:00,
2013-05-13 23:37:00,41.9,39.2,30.01,WNW,300,0.0,2.0,90,0.00,,---,0.02,VWS V14.01,2013-05-14 03:37:00,
2013-05-13 23:42:00,41.9,39.5,30.00,NE,36,0.0,2.0,91,0.00,,---,0.02,VWS V14.01,2013-05-14 03:42:00,
2013-05-13 23:47:00,41.9,39.5,30.01,NE,35,0.0,2.0,91,0.00,,---,0.02,VWS V14.01,2013-05-14 03:47:00,
2013-05-13 23:52:00,41.9,39.5,30.00,NE,36,0.0,2.0,91,0.00,,---,0.02,VWS V14.01,2013-05-14 03:52:00,
2013-05-13 23:57:00,41.7,39.3,30.00,NE,36,0.0,2.0,91,0.00,,---,0.02,VWS V14.01,2013-05-14 03:57:00,